Location: Beazer
(49.1167°N, 113.4833°W)
Time: 02:12:48
(UTC+00:00)

N. Korean satellite - Visible Passes

Search period start: 07 December 2021 00:00
Search period end: 17 December 2021 00:00
Orbit: 446 x 495 km, 97.3° (Epoch: 06 December)

Date Brightness Start Highest point End Pass type
(mag) Time Alt. Az. Time Alt. Az. Time Alt. Az.
07 Dec 6.8 12:48:27 10° NNE 12:51:50 64° E 12:55:11 10° S visible
07 Dec 8.4 14:23:31 10° NW 14:24:33 11° WNW 14:25:35 10° WNW visible
08 Dec 9.7 01:00:52 10° SW 01:02:58 15° W 01:05:03 10° NW visible
08 Dec 8.5 12:20:13 10° NE 12:23:11 28° E 12:26:10 10° SSE visible
08 Dec 7.6 13:53:38 10° NNW 13:56:16 21° WNW 13:58:53 10° WSW visible
09 Dec 8.7 00:31:07 10° SSW 00:34:14 30° W 00:37:20 10° NNW visible
09 Dec 9.6 11:52:37 10° ENE 11:54:26 14° E 11:56:14 10° ESE visible
09 Dec 6.7 13:24:37 10° N 13:27:53 43° WNW 13:31:06 10° SW visible
10 Dec 7.1 12:55:57 10° NNE 13:00:23 43° S 13:02:45 10° S visible
11 Dec 9.9 01:09:04 10° WSW 01:10:33 12° W 01:12:02 10° WNW visible
11 Dec 8.5 12:27:35 10° NNE 12:32:12 23° SE 12:33:51 10° SSE visible
11 Dec 8.5 14:01:20 10° NNW 14:06:18 - WSW 14:01:56 13° NNW visible
12 Dec 9.1 00:38:51 10° SSW 00:41:46 25° W 00:44:39 10° NW visible
12 Dec 9.6 12:03:49 12° SE 12:03:49 12° SE 12:04:14 10° SE visible
12 Dec 8.6 13:32:10 10° N 13:37:56 13° SW 13:38:26 10° SW visible
13 Dec 7.4 00:09:41 10° S 00:13:04 54° W 00:16:27 10° NNW visible
13 Dec 8.6 13:09:27 16° SSW 13:09:27 16° SSW 13:10:12 10° SSW visible
14 Dec 9.0 12:40:54 14° SSE 12:40:54 14° SSE 12:41:27 10° S visible
14 Dec9.114:15:00WSW14:15:00WSW14:08:18NNWvisible
15 Dec 9.4 00:46:35 10° SW 00:49:14 20° W 00:51:52 10° NW visible
15 Dec9.712:12:19SE12:12:19SE12:05:07NNEvisible
15 Dec9.213:46:24SW13:46:24SW13:39:10Nvisible
16 Dec 7.8 00:17:12 10° S 00:20:30 43° W 00:23:46 10° NNW visible
16 Dec9.213:17:46SSW13:17:46SSW13:10:05Nvisible
